Location: Knowlton
(51.2333°N, 1.2667°E)
Time: 10:50:25
(UTC+00:00)

Cosmos 1437 Rocket - Pass Details

Date: 18 April 2021
Orbit: 502 x 564 km, 81.2° (Epoch: 05 May)

Event Time Altitude Azimuth Distance (km) Brightness Sun altitude
Exits shadow 23:43:49 33° 340° (NNW) 865 4.3 -27.5°
Drops below altitude 10° 23:46:14 10° 3° (N) 1,735 6.3 -27.6°
Sets 23:48:27 0° 9° (N) 2,632 7.5 -27.6°
